Date String (YYYY-MM-DD hh:mm:ss) UTC,Instrument flags,Ambient pressure (hPa),Sample flow (lpm),Bypass flow (lpm),Sample temperature (°C),Ambient temperature (°C),ASC tube jacket temperature (°C),LED temperature (°C),Box temperature (°C),Sample RH (%),Span deviation,Mass concentration (μg/m³),Mass concentration (μg/m³),Mass concentration (μg/m³)
DateTimeUTC,F1_M11,P_M11,Q1_M11,Q2_M11,T1_M11,T2_M11,T3_M11,T4_M11,T5_M11,U1_M11,ZSPAN_M11,X2_M11,X0_M11,X1_M11
2022-09-05 19:00:00,,0828.4,5.01,0.00,29.6,28.1,00.0,38.1,31.5,17.1,0000.0,0006.69,0014.73,0005.56
2022-09-05 19:01:00,,0828.4,5.00,0.00,29.6,27.0,00.0,38.1,31.4,17.3,0000.0,0006.72,0014.27,0005.57
2022-09-05 19:02:00,,0828.4,5.00,0.00,29.5,26.7,00.0,38.1,31.4,17.1,0000.0,0006.70,0013.93,0005.58
2022-09-05 19:03:00,,0828.4,4.99,0.00,29.5,27.0,00.0,38.1,31.4,17.1,0000.0,0006.68,0014.49,0005.59
2022-09-05 19:04:00,,0828.3,5.00,0.00,29.5,27.3,00.0,38.1,31.2,16.4,0000.0,0006.63,0014.87,0005.58
2022-09-05 19:05:00,,0828.4,5.00,0.00,29.5,27.6,00.0,38.1,31.2,15.8,0000.0,0006.58,0015.29,0005.57
2022-09-05 19:06:00,,0828.4,5.01,0.00,29.5,27.8,00.0,38.1,31.3,15.6,0000.0,0006.58,0015.94,0005.56
2022-09-05 19:07:00,,0828.4,5.01,0.00,29.5,28.1,00.0,38.1,31.4,15.7,0000.0,0006.53,0015.61,0005.54
2022-09-05 19:08:00,,0828.4,4.98,0.00,29.6,28.0,00.0,38.1,31.4,15.8,0000.0,0006.46,0014.87,0005.52
2022-09-05 19:09:00,,0828.4,5.00,0.00,29.5,27.0,00.0,38.1,31.3,15.8,0000.0,0006.47,0014.89,0005.51
2022-09-05 19:10:00,,0828.5,5.00,0.00,29.5,26.6,00.0,38.1,31.3,15.6,0000.0,0006.50,0015.26,0005.49
2022-09-05 19:11:00,,0828.5,5.01,0.00,29.5,26.9,00.0,38.1,31.3,15.6,0000.0,0006.56,0014.56,0005.48
2022-09-05 19:12:00,,0828.5,5.00,0.00,29.4,27.2,00.0,38.1,31.2,15.6,0000.0,0006.52,0014.45,0005.47
2022-09-05 19:13:00,,0828.4,5.01,0.00,29.4,27.5,00.0,38.1,31.2,15.7,0000.0,0006.48,0014.04,0005.44
2022-09-05 19:14:00,,0828.4,5.00,0.00,29.4,27.8,00.0,38.1,31.2,15.7,0000.0,0006.45,0013.30,0005.41
2022-09-05 19:15:00,,0828.3,5.01,0.00,29.5,28.0,00.0,38.1,31.3,15.7,0000.0,0006.49,0014.17,0005.40
2022-09-05 19:16:00,,0828.3,4.97,0.00,29.5,27.9,00.0,38.1,31.4,15.7,0000.0,0006.51,0014.38,0005.42
2022-09-05 19:17:00,,0828.3,5.01,0.00,29.5,26.9,00.0,38.1,31.3,15.3,0000.0,0006.52,0014.10,0005.42
2022-09-05 19:18:00,,0828.3,5.00,0.00,29.4,26.5,00.0,38.1,31.2,15.2,0000.0,0006.57,0014.96,0005.42
2022-09-05 19:19:00,,0828.3,4.99,0.00,29.4,26.8,00.0,38.1,31.2,15.2,0000.0,0006.60,0015.32,0005.43
2022-09-05 19:20:00,,0828.3,5.01,0.00,29.4,27.1,00.0,38.0,31.1,15.4,0000.0,0006.63,0015.63,0005.43
2022-09-05 19:21:00,,0828.3,5.00,0.00,29.4,27.4,00.0,38.0,31.1,15.4,0000.0,0006.61,0015.66,0005.43
2022-09-05 19:22:00,,0828.3,5.01,0.00,29.4,27.7,00.0,38.0,31.2,15.4,0000.0,0006.54,0016.27,0005.41
2022-09-05 19:23:00,,0828.3,4.99,0.00,29.4,28.0,00.0,38.0,31.3,15.4,0000.0,0006.52,0016.82,0005.41
2022-09-05 19:24:00,,0828.3,4.99,0.00,29.5,27.9,00.0,38.1,31.3,15.2,0000.0,0006.52,0016.82,0005.42
2022-09-05 19:25:00,,0828.3,5.01,0.00,29.4,27.0,00.0,38.1,31.2,15.2,0000.0,0006.54,0017.38,0005.41
2022-09-05 19:26:00,,0828.3,5.00,0.00,29.4,26.6,00.0,38.0,31.2,15.3,0000.0,0006.49,0016.88,0005.42
2022-09-05 19:27:00,,0828.3,4.99,0.00,29.4,26.9,00.0,38.0,31.2,15.6,0000.0,0006.46,0015.97,0005.42
2022-09-05 19:28:00,,0828.3,5.01,0.00,29.4,27.2,00.0,38.0,31.1,15.7,0000.0,0006.43,0016.81,0005.42
2022-09-05 19:29:00,,0828.3,5.00,0.00,29.4,27.5,00.0,38.0,31.1,15.8,0000.0,0006.36,0015.71,0005.41
2022-09-05 19:30:00,,0828.3,5.00,0.00,29.4,27.8,00.0,38.0,31.2,16.0,0000.0,0006.32,0015.53,0005.40
2022-09-05 19:31:00,,0828.3,5.00,0.00,29.4,28.0,00.0,38.0,31.3,16.0,0000.0,0006.29,0015.83,0005.39
2022-09-05 19:32:00,,0828.3,5.01,0.00,29.5,28.2,00.0,38.0,31.4,16.0,0000.0,0006.28,0015.08,0005.39
2022-09-05 19:33:00,,0828.3,4.98,0.00,29.5,27.6,00.0,38.1,31.3,15.9,0000.0,0006.30,0014.42,0005.40
2022-09-05 19:34:00,,0828.2,5.00,0.00,29.4,26.6,00.0,38.0,31.2,16.2,0000.0,0006.29,0013.87,0005.40
2022-09-05 19:35:00,,0828.3,5.00,0.00,29.4,26.7,00.0,38.0,31.2,16.2,0000.0,0006.34,0014.33,0005.41
2022-09-05 19:36:00,,0828.3,5.00,0.00,29.4,27.0,00.0,38.0,31.1,16.0,0000.0,0006.37,0014.28,0005.42
2022-09-05 19:37:00,,0828.2,5.00,0.00,29.4,27.3,00.0,38.0,31.1,15.9,0000.0,0006.39,0014.58,0005.41
2022-09-05 19:38:00,,0828.2,5.02,0.00,29.4,27.6,00.0,38.0,31.2,16.3,0000.0,0006.43,0015.13,0005.42
2022-09-05 19:39:00,,0828.2,5.00,0.00,29.4,27.9,00.0,38.0,31.3,16.3,0000.0,0006.46,0014.53,0005.42
2022-09-05 19:40:00,,0828.2,4.98,0.00,29.5,28.1,00.0,38.0,31.4,16.3,0000.0,0006.47,0014.24,0005.43
2022-09-05 19:41:00,,0828.3,5.00,0.00,29.5,27.5,00.0,38.1,31.4,16.1,0000.0,0006.49,0014.31,0005.43
2022-09-05 19:42:00,,0828.2,5.00,0.00,29.4,26.7,00.0,38.0,31.2,16.0,0000.0,0006.49,0014.11,0005.44
2022-09-05 19:43:00,,0828.1,5.00,0.00,29.4,26.7,00.0,38.0,31.2,16.2,0000.0,0006.50,0014.56,0005.45
2022-09-05 19:44:00,,0828.1,4.99,0.00,29.4,27.0,00.0,38.0,31.2,15.9,0000.0,0006.50,0015.03,0005.43
2022-09-05 19:45:00,,0828.1,5.00,0.00,29.4,27.3,00.0,38.0,31.1,15.8,0000.0,0006.51,0015.10,0005.45
2022-09-05 19:46:00,,0828.2,5.01,0.00,29.4,27.6,00.0,38.0,31.2,16.0,0000.0,0006.47,0014.71,0005.44
2022-09-05 19:47:00,,0828.2,5.01,0.00,29.4,27.9,00.0,38.0,31.2,15.8,0000.0,0006.47,0014.36,0005.44
2022-09-05 19:48:00,,0828.3,4.99,0.00,29.4,28.1,00.0,38.0,31.3,15.9,0000.0,0006.50,0013.77,0005.44
2022-09-05 19:49:00,,0828.1,5.00,0.00,29.5,28.1,00.0,38.1,31.4,15.5,0000.0,0006.50,0013.36,0005.43
2022-09-05 19:50:00,,0828.1,5.00,0.00,29.5,27.1,00.0,38.1,31.3,15.4,0000.0,0006.52,0013.35,0005.43
2022-09-05 19:51:00,,0828.2,4.99,0.00,29.4,26.6,00.0,38.0,31.2,15.6,0000.0,0006.59,0014.13,0005.45
2022-09-05 19:52:00,,0828.1,5.01,0.00,29.4,26.9,00.0,38.0,31.3,16.1,0000.0,0006.64,0014.60,0005.45
2022-09-05 19:53:00,,0828.1,4.99,0.00,29.4,27.2,00.0,38.0,31.1,16.0,0000.0,0006.65,0014.27,0005.45
2022-09-05 19:54:00,,0828.1,5.01,0.00,29.4,27.5,00.0,38.0,31.1,16.0,0000.0,0006.64,0013.80,0005.45
2022-09-05 19:55:00,,0828.1,5.01,0.00,29.4,27.7,00.0,38.0,31.2,16.0,0000.0,0006.66,0013.52,0005.46
2022-09-05 19:56:00,,0828.0,5.01,0.00,29.4,28.0,00.0,38.0,31.3,15.8,0000.0,0006.70,0013.56,0005.45
2022-09-05 19:57:00,,0828.0,4.98,0.00,29.5,28.0,00.0,38.0,31.4,15.9,0000.0,0006.72,0014.03,0005.45
2022-09-05 19:58:00,,0828.1,5.01,0.00,29.5,27.0,00.0,38.1,31.3,16.1,0000.0,0006.68,0014.54,0005.45
2022-09-05 19:59:00,,0828.0,5.00,0.00,29.4,26.5,00.0,38.0,31.2,16.1,0000.0,0006.61,0014.35,0005.45
